• Processing (Info)

  • MPEC 2023-K07 : 2023 FL33

    The following Minor Planet Electronic Circular may be linked-to from your own Web pages, but must not otherwise be redistributed electronically.

    A form allowing access to any MPEC is at the bottom of this page.


    Read MPEC 2023-K06 Read MPEC 2023-K08


    M.P.E.C. 2023-K07                                  Issued 2023 May 16, 10:46 UT
    
         The Minor Planet Electronic Circulars contain information on unusual
             minor planets, routine data on comets and natural satellites,
             and occasional editorial announcements.  They are published
        on behalf of Division F of the International Astronomical Union by the
              Minor Planet Center, Smithsonian Astrophysical Observatory,
                              Cambridge, MA 02138, U.S.A.
    			  
                 Prepared using the Tamkin Foundation Computer Network
    
                                  MPC@CFA.HARVARD.EDU
                URL https://www.minorplanetcenter.net/    ISSN 1523-6714
    
                                    2023 FL33                                
    
    
    Observations:
         K23F33L* C2023 03 19.57342912 57 27.932+23 54 33.80         22.24wUEK007F52
         K23F33L  C2023 03 19.58480212 57 27.582+23 54 35.66         22.11wUEK007F52
         K23F33L  C2023 03 19.59617612 57 27.186+23 54 37.13         22.72wUEK007F52
         K23F33L 1C2023 04 14.31694 12 35 46.31 +20 24 25.2          22.0 GVEK007G96
         K23F33L 1C2023 04 14.32737 12 35 45.58 +20 24 09.9          21.9 GVEK007G96
         K23F33L 1C2023 04 14.33258 12 35 45.20 +20 24 03.9          21.2 GVEK007G96
         K23F33L 1C2023 04 28.19313 12 23 13.50 +12 26 38.8          21.2 GVEK007G96
         K23F33L 1C2023 04 28.19837 12 23 13.20 +12 26 24.3          22.1 GVEK007G96
         K23F33L 1C2023 04 28.20883 12 23 12.62 +12 25 55.7          22.1 GVEK007G96
         K23F33L  C2023 05 14.26219112 20 36.780-02 46 22.73         21.45wXEK007F51
         K23F33L  C2023 05 14.27409712 20 36.849-02 47 09.70         21.23wXEK007F51
         K23F33L  C2023 05 14.28452412 20 36.917-02 47 50.83         21.13wXEK007F51
         K23F33L  C2023 05 14.48624212 20 38.839-03 01 09.07         21.06GVEK007F51
         K23F33L  C2023 05 14.48705412 20 38.837-03 01 12.06         21.30GVEK007F51
         K23F33L |C2023 05 16.05068 12 21 25.38 -04 44 50.4          21.2 GVEK007807
         K23F33L |C2023 05 16.05252 12 21 25.41 -04 44 58.0          21.1 GVEK007807
         K23F33L |C2023 05 16.05437 12 21 25.45 -04 45 05.3          20.9 GVEK007807
    
    Observer details:
    807 Cerro Tololo Observatory, La Serena.  Observers T. Linder, R. Holmes, L.
        Horn.  1.00-m f/10.0 astrograph + CCD.
    F51 Pan-STARRS 1, Haleakala.  Observers J. Bulger, T. Lowe, A. Schultz, I.
        Smith, K. Chambers.  Measurers K. Chambers, S. Chastel, T. de Boer, J.
        Fairlamb, H. Gao, M. Huber, C.-C. Lin, E. Magnier, Y. Ramanjooloo, R.
        Wainscoat, R. Weryk.  1.8-m Ritchey-Chretien + CCD.
    F52 Pan-STARRS 2, Haleakala.  Observers J. Bulger, T. Lowe, A. Schultz, I.
        Smith.  Measurers K. Chambers, S. Chastel, T. de Boer, J. Fairlamb, H.
        Gao, M. Huber, C.-C. Lin, E. Magnier, Y. Ramanjooloo, R. Wainscoat, R.
        Weryk.  1.8-m Ritchey-Chretien + CCD.
    G96 Mt. Lemmon Survey.  Observers J. K. Hogan, J. B. Fazekas.  Measurers B.
        Gray, D. Rankin, F. C. Shelly.  1.5-m reflector + 10K CCD.
    
    Orbital elements:
    2023 FL33                                                Earth MOID = 0.1401 AU
    Epoch 2023 Feb. 25.0 TT = JDT 2460000.5                 Veres                   
    M 326.76521              (2000.0)            P               Q                  
    n   0.36586407     Peri.  192.38225     -0.53804383     +0.83351258             
    a   1.9360781      Node    45.23016     -0.75749230     -0.41277972             
    e   0.4074417      Incl.   10.18700     -0.36974890     -0.36724608             
    P   2.69           H   23.11          G   0.15           U   5                  
    Residuals in seconds of arc
    230319 F52  0.1-  0.0     230428 G96  0.3+  0.2+    230514 F51  0.1-  0.1-
    230319 F52  0.2+  0.1+    230428 G96  0.0   0.0     230514 F51  0.3-  0.1+
    230319 F52  0.2-  0.1-    230428 G96  0.3-  0.1-    230516 807  0.0   0.1+
    230414 G96  0.5-  0.2+    230514 F51  0.1+  0.0     230516 807  0.0   0.1-
    230414 G96  0.4+  0.2-    230514 F51  0.0   0.2+    230516 807  0.2+  0.0
    230414 G96 (0.6+  1.3+)   230514 F51  0.0   0.4+
    
    Ephemeris:
    2023 FL33                a,e,i = 1.94, 0.41, 10                  q = 1.1472
    Date    TT    R. A. (2000) Decl.     Delta      r    Elong.  Phase     V
    2023 04 16    12 34 00.8 +19 42 52   0.2488  1.2194   146.9    26.7    21.7
    ...
    2023 05 01    12 21 36.4 +10 12 51   0.2129  1.1771   139.4    33.8    21.5
    ...
    2023 05 09    12 19 34.8 +02 48 08   0.2019  1.1616   135.4    37.6    21.5
    ...
    2023 05 15    12 20 54.5 -03 34 52   0.1976  1.1536   132.6    40.2    21.5
    2023 05 16    12 21 23.5 -04 41 42   0.1972  1.1526   132.2    40.6    21.5
    2023 05 17    12 21 57.4 -05 49 10   0.1970  1.1517   131.7    40.9    21.5
    ...
    2023 05 23    12 27 04.6 -12 42 51   0.1976  1.1479   129.4    43.0    21.6
    ...
    2023 05 31    12 38 47.3 -21 53 10   0.2043  1.1480   126.9    44.9    21.7
    ...
    2023 06 15    13 16 32.4 -36 49 57   0.2342  1.1638   124.3    46.1    22.0
    
    M. P. C. Staff               (C) Copyright 2023 MPC           M.P.E.C. 2023-K07
    


    Read MPEC 2023-K06 Read MPEC 2023-K08


    MPEC number:

    Enter an MPEC number in one of the following forms:

    • 1997-B01 (the full form)
    • J97B01 (the packed version of the full form)
    • B01 (the abbreviated form)